Time,TemperatureF,DewpointF,PressureIn,WindDirection,WindDirectionDegrees,WindSpeedMPH,WindSpeedGustMPH,Humidity,HourlyPrecipIn,Conditions,Clouds,dailyrainin,SoftwareType,DateUTC
2013-03-16 00:02:00,26.0,20.0,29.63,West,274,4.0,10.0,78,0.00,,,0.00,,2013-03-16 04:02:00,
2013-03-16 00:13:00,26.0,20.0,29.63,West,274,4.0,10.0,78,0.00,,,0.00,,2013-03-16 04:13:00,
2013-03-16 00:23:00,26.0,20.0,29.64,WNW,291,3.0,7.0,78,0.00,,,0.00,,2013-03-16 04:23:00,
2013-03-16 00:33:00,26.0,20.0,29.64,NNW,327,5.0,9.0,77,0.00,,,0.00,,2013-03-16 04:33:00,
2013-03-16 00:43:00,26.0,20.0,29.64,NNW,327,5.0,9.0,77,0.00,,,0.00,,2013-03-16 04:43:00,
2013-03-16 00:53:00,26.0,20.0,29.64,North,354,8.0,15.0,77,0.00,,,0.00,,2013-03-16 04:53:00,
2013-03-16 01:02:00,26.0,20.0,29.65,WSW,247,6.0,13.0,77,0.00,,,0.00,,2013-03-16 05:02:00,
2013-03-16 01:12:00,26.0,20.0,29.65,WSW,247,6.0,13.0,77,0.00,,,0.00,,2013-03-16 05:12:00,
2013-03-16 01:22:00,25.0,19.0,29.65,North,5,4.0,15.0,77,0.00,,,0.00,,2013-03-16 05:22:00,
2013-03-16 01:32:00,25.0,19.0,29.66,WNW,282,4.0,9.0,78,0.00,,,0.00,,2013-03-16 05:32:00,
2013-03-16 01:42:00,25.0,19.0,29.66,WNW,282,4.0,9.0,78,0.00,,,0.00,,2013-03-16 05:42:00,
2013-03-16 01:53:00,24.0,18.0,29.76,SW,227,3.0,9.0,78,0.00,,,0.00,,2013-03-16 05:53:00,
2013-03-16 02:02:00,24.0,18.0,29.76,WSW,250,5.0,10.0,76,0.00,,,0.00,,2013-03-16 06:02:00,
2013-03-16 02:12:00,24.0,18.0,29.76,WSW,250,5.0,10.0,76,0.00,,,0.00,,2013-03-16 06:12:00,
2013-03-16 02:22:00,25.0,19.0,29.67,WSW,241,5.0,12.0,76,0.00,,,0.00,,2013-03-16 06:22:00,
2013-03-16 02:32:00,24.0,18.0,29.67,West,279,6.0,11.0,76,0.00,,,0.00,,2013-03-16 06:32:00,
2013-03-16 02:42:00,24.0,18.0,29.67,West,279,6.0,11.0,76,0.00,,,0.00,,2013-03-16 06:42:00,
2013-03-16 02:52:00,24.0,18.0,29.67,NNW,344,4.0,11.0,76,0.00,,,0.00,,2013-03-16 06:52:00,
2013-03-16 03:02:00,24.0,17.0,29.67,WSW,241,6.0,12.0,75,0.00,,,0.00,,2013-03-16 07:02:00,
2013-03-16 03:12:00,24.0,17.0,29.67,WSW,241,6.0,12.0,75,0.00,,,0.00,,2013-03-16 07:12:00,
2013-03-16 03:22:00,23.0,16.0,29.67,WNW,287,4.0,9.0,74,0.00,,,0.00,,2013-03-16 07:22:00,
2013-03-16 03:32:00,23.0,15.0,29.67,NNW,335,5.0,13.0,72,0.00,,,0.00,,2013-03-16 07:32:00,
2013-03-16 03:42:00,23.0,15.0,29.67,NNW,335,5.0,13.0,72,0.00,,,0.00,,2013-03-16 07:42:00,
2013-03-16 03:52:00,23.0,16.0,29.68,West,275,6.0,11.0,73,0.00,,,0.00,,2013-03-16 07:52:00,
2013-03-16 04:03:00,23.0,16.0,29.68,NNW,329,3.0,13.0,74,0.00,,,0.00,,2013-03-16 08:03:00,
2013-03-16 04:12:00,23.0,16.0,29.68,NNW,329,3.0,13.0,74,0.00,,,0.00,,2013-03-16 08:12:00,
2013-03-16 04:23:00,22.0,15.0,29.68,SW,223,5.0,15.0,75,0.00,,,0.00,,2013-03-16 08:23:00,
2013-03-16 04:32:00,22.0,16.0,29.68,WSW,249,4.0,15.0,76,0.00,,,0.00,,2013-03-16 08:32:00,
2013-03-16 04:42:00,22.0,16.0,29.68,WSW,249,4.0,15.0,76,0.00,,,0.00,,2013-03-16 08:42:00,
2013-03-16 04:52:00,22.0,16.0,29.69,NW,324,4.0,10.0,77,0.00,,,0.00,,2013-03-16 08:52:00,
2013-03-16 05:02:00,21.0,16.0,29.79,NW,308,3.0,8.0,79,0.00,,,0.00,,2013-03-16 09:02:00,
2013-03-16 05:12:00,21.0,16.0,29.79,NW,308,3.0,8.0,79,0.00,,,0.00,,2013-03-16 09:12:00,
2013-03-16 05:22:00,22.0,16.0,29.70,SW,225,6.0,11.0,78,0.00,,,0.00,,2013-03-16 09:22:00,
2013-03-16 05:33:00,21.0,16.0,29.72,WSW,246,4.0,8.0,80,0.00,,,0.00,,2013-03-16 09:33:00,
2013-03-16 05:42:00,21.0,16.0,29.72,WSW,246,4.0,8.0,80,0.00,,,0.00,,2013-03-16 09:42:00,
2013-03-16 05:53:00,21.0,16.0,29.72,NNW,343,3.0,10.0,80,0.00,,,0.00,,2013-03-16 09:53:00,
2013-03-16 06:03:00,21.0,16.0,29.72,West,280,4.0,10.0,80,0.00,,,0.00,,2013-03-16 10:03:00,
2013-03-16 06:12:00,21.0,16.0,29.72,West,280,4.0,10.0,80,0.00,,,0.00,,2013-03-16 10:12:00,
2013-03-16 06:23:00,20.0,14.0,29.73,WNW,301,1.0,7.0,78,0.00,,,0.00,,2013-03-16 10:23:00,
2013-03-16 06:32:00,20.0,14.0,29.74,WNW,290,2.0,5.0,78,0.00,,,0.00,,2013-03-16 10:32:00,
2013-03-16 06:42:00,20.0,14.0,29.74,WNW,290,2.0,5.0,78,0.00,,,0.00,,2013-03-16 10:42:00,
2013-03-16 06:53:00,20.0,14.0,29.74,WSW,245,3.0,7.0,78,0.00,,,0.00,,2013-03-16 10:53:00,
2013-03-16 07:03:00,19.0,13.0,29.74,WNW,287,3.0,7.0,78,0.00,,,0.00,,2013-03-16 11:03:00,
2013-03-16 07:12:00,19.0,13.0,29.74,WNW,287,3.0,7.0,78,0.00,,,0.00,,2013-03-16 11:12:00,
2013-03-16 07:22:00,19.0,14.0,29.74,West,280,1.0,6.0,79,0.00,,,0.00,,2013-03-16 11:22:00,
2013-03-16 07:32:00,19.0,14.0,29.75,NNW,340,3.0,6.0,80,0.00,,,0.00,,2013-03-16 11:32:00,
2013-03-16 07:43:00,19.0,14.0,29.75,NNW,340,3.0,6.0,80,0.00,,,0.00,,2013-03-16 11:43:00,
2013-03-16 07:53:00,19.0,14.0,29.75,West,269,2.0,7.0,80,0.00,,,0.00,,2013-03-16 11:53:00,
2013-03-16 08:02:00,18.0,13.0,29.84,NW,319,1.0,5.0,80,0.00,,,0.00,,2013-03-16 12:02:00,
2013-03-16 08:12:00,18.0,13.0,29.84,NW,319,1.0,5.0,80,0.00,,,0.00,,2013-03-16 12:12:00,
2013-03-16 08:22:00,18.0,13.0,29.85,WNW,287,0.0,3.0,80,0.00,,,0.00,,2013-03-16 12:22:00,
2013-03-16 08:32:00,19.0,14.0,29.77,WNW,301,2.0,4.0,80,0.00,,,0.00,,2013-03-16 12:32:00,
2013-03-16 08:42:00,19.0,14.0,29.77,WNW,301,2.0,4.0,80,0.00,,,0.00,,2013-03-16 12:42:00,
2013-03-16 08:53:00,20.0,15.0,29.77,NNW,346,0.0,2.0,79,0.00,,,0.00,,2013-03-16 12:53:00,
2013-03-16 09:02:00,21.0,15.0,29.78,North,7,2.0,6.0,76,0.00,,,0.00,,2013-03-16 13:02:00,
2013-03-16 09:12:00,21.0,15.0,29.78,North,7,2.0,6.0,76,0.00,,,0.00,,2013-03-16 13:12:00,
2013-03-16 09:22:00,21.0,14.0,29.78,NE,35,2.0,6.0,74,0.00,,,0.00,,2013-03-16 13:22:00,
2013-03-16 09:32:00,21.0,14.0,29.78,NW,323,2.0,7.0,73,0.00,,,0.00,,2013-03-16 13:32:00,
2013-03-16 09:42:00,21.0,14.0,29.78,NW,323,2.0,7.0,73,0.00,,,0.00,,2013-03-16 13:42:00,
2013-03-16 09:53:00,21.0,14.0,29.78,North,1,1.0,6.0,73,0.00,,,0.00,,2013-03-16 13:53:00,
2013-03-16 10:03:00,21.0,14.0,29.78,NNE,12,1.0,4.0,73,0.00,,,0.00,,2013-03-16 14:03:00,
2013-03-16 10:12:00,21.0,14.0,29.78,NNE,12,1.0,4.0,73,0.00,,,0.00,,2013-03-16 14:12:00,
2013-03-16 10:22:00,22.0,13.0,29.78,NNE,22,2.0,5.0,69,0.00,,,0.00,,2013-03-16 14:22:00,
2013-03-16 10:32:00,22.0,13.0,29.78,NW,313,1.0,5.0,68,0.00,,,0.00,,2013-03-16 14:32:00,
2013-03-16 10:42:00,22.0,13.0,29.78,NW,313,1.0,5.0,68,0.00,,,0.00,,2013-03-16 14:42:00,
2013-03-16 10:53:00,22.0,12.0,29.78,West,262,4.0,7.0,66,0.00,,,0.00,,2013-03-16 14:53:00,
2013-03-16 11:03:00,23.0,13.0,29.78,NNE,15,2.0,4.0,65,0.00,,,0.00,,2013-03-16 15:03:00,
2013-03-16 11:13:00,23.0,13.0,29.78,NNE,15,2.0,4.0,65,0.00,,,0.00,,2013-03-16 15:13:00,
2013-03-16 11:23:00,23.0,13.0,29.77,NNE,22,2.0,4.0,64,0.00,,,0.00,,2013-03-16 15:23:00,
2013-03-16 11:33:00,23.0,13.0,29.86,NNW,345,0.0,9.0,65,0.00,,,0.00,,2013-03-16 15:33:00,
2013-03-16 11:43:00,23.0,13.0,29.86,NNW,345,0.0,9.0,65,0.00,,,0.00,,2013-03-16 15:43:00,
2013-03-16 11:53:00,24.0,12.0,29.77,NNE,17,2.0,5.0,59,0.00,,,0.00,,2013-03-16 15:53:00,
2013-03-16 12:03:00,25.0,12.0,29.77,North,350,3.0,5.0,57,0.00,,,0.00,,2013-03-16 16:03:00,
2013-03-16 12:13:00,25.0,12.0,29.77,North,350,3.0,5.0,57,0.00,,,0.00,,2013-03-16 16:13:00,
2013-03-16 12:23:00,25.0,12.0,29.76,West,277,2.0,5.0,57,0.00,,,0.00,,2013-03-16 16:23:00,
2013-03-16 12:33:00,26.0,14.0,29.76,WSW,241,2.0,7.0,59,0.00,,,0.00,,2013-03-16 16:33:00,
2013-03-16 12:42:00,26.0,14.0,29.76,WSW,241,2.0,7.0,59,0.00,,,0.00,,2013-03-16 16:42:00,
2013-03-16 12:53:00,26.0,12.0,29.76,WSW,243,2.0,8.0,55,0.00,,,0.00,,2013-03-16 16:53:00,
2013-03-16 13:03:00,27.0,13.0,29.75,WNW,300,2.0,7.0,56,0.00,,,0.00,,2013-03-16 17:03:00,
2013-03-16 13:13:00,27.0,13.0,29.75,WNW,300,2.0,7.0,56,0.00,,,0.00,,2013-03-16 17:13:00,
2013-03-16 13:23:00,27.0,13.0,29.75,NW,308,4.0,7.0,56,0.00,,,0.00,,2013-03-16 17:23:00,
2013-03-16 13:33:00,26.0,12.0,29.75,North,11,3.0,11.0,55,0.00,,,0.00,,2013-03-16 17:33:00,
2013-03-16 13:42:00,26.0,12.0,29.75,North,11,3.0,11.0,55,0.00,,,0.00,,2013-03-16 17:42:00,
2013-03-16 13:53:00,27.0,13.0,29.75,WNW,292,0.0,7.0,56,0.00,,,0.00,,2013-03-16 17:53:00,
2013-03-16 14:02:00,27.0,13.0,29.74,North,360,2.0,5.0,54,0.00,,,0.00,,2013-03-16 18:02:00,
2013-03-16 14:13:00,27.0,13.0,29.74,North,360,2.0,5.0,54,0.00,,,0.00,,2013-03-16 18:13:00,
2013-03-16 14:23:00,27.0,12.0,29.74,NNE,22,3.0,5.0,53,0.00,,,0.00,,2013-03-16 18:23:00,
2013-03-16 14:33:00,28.0,13.0,29.74,North,5,3.0,7.0,53,0.00,,,0.00,,2013-03-16 18:33:00,
2013-03-16 14:43:00,28.0,13.0,29.74,North,5,3.0,7.0,53,0.00,,,0.00,,2013-03-16 18:43:00,
2013-03-16 14:53:00,27.0,12.0,29.83,North,10,2.0,8.0,53,0.00,,,0.00,,2013-03-16 18:53:00,
2013-03-16 15:02:00,28.0,13.0,29.74,West,268,2.0,5.0,53,0.00,,,0.00,,2013-03-16 19:02:00,
2013-03-16 15:12:00,28.0,13.0,29.74,West,268,2.0,5.0,53,0.00,,,0.00,,2013-03-16 19:12:00,
2013-03-16 15:22:00,28.0,11.0,29.74,WNW,291,2.0,7.0,49,0.00,,,0.00,,2013-03-16 19:22:00,
2013-03-16 15:32:00,28.0,12.0,29.75,NNW,348,3.0,8.0,51,0.00,,,0.00,,2013-03-16 19:32:00,
2013-03-16 15:42:00,28.0,12.0,29.75,NNW,348,3.0,8.0,51,0.00,,,0.00,,2013-03-16 19:42:00,
2013-03-16 15:53:00,28.0,10.0,29.74,North,10,4.0,8.0,47,0.00,,,0.00,,2013-03-16 19:53:00,
2013-03-16 16:02:00,29.0,10.0,29.73,NW,323,4.0,9.0,45,0.00,,,0.00,,2013-03-16 20:02:00,
2013-03-16 16:12:00,29.0,10.0,29.73,NW,323,4.0,9.0,45,0.00,,,0.00,,2013-03-16 20:12:00,
2013-03-16 16:22:00,29.0,12.0,29.73,NNW,330,1.0,8.0,48,0.00,,,0.00,,2013-03-16 20:22:00,
2013-03-16 16:33:00,30.0,10.0,29.72,WNW,287,2.0,9.0,43,0.00,,,0.00,,2013-03-16 20:33:00,
2013-03-16 16:42:00,30.0,10.0,29.72,WNW,287,2.0,9.0,43,0.00,,,0.00,,2013-03-16 20:42:00,
2013-03-16 16:53:00,30.0,10.0,29.72,WSW,247,3.0,7.0,43,0.00,,,0.00,,2013-03-16 20:53:00,
2013-03-16 17:02:00,31.0,9.0,29.72,NNW,330,3.0,7.0,39,0.00,,,0.00,,2013-03-16 21:02:00,
2013-03-16 17:12:00,31.0,9.0,29.72,NNW,330,3.0,7.0,39,0.00,,,0.00,,2013-03-16 21:12:00,
2013-03-16 17:23:00,31.0,10.0,29.72,WNW,301,2.0,7.0,41,0.00,,,0.00,,2013-03-16 21:23:00,
2013-03-16 17:33:00,31.0,10.0,29.72,NNE,29,2.0,5.0,40,0.00,,,0.00,,2013-03-16 21:33:00,
2013-03-16 17:43:00,31.0,10.0,29.72,NNE,29,2.0,5.0,40,0.00,,,0.00,,2013-03-16 21:43:00,
2013-03-16 17:53:00,30.0,9.0,29.80,WNW,298,1.0,7.0,41,0.00,,,0.00,,2013-03-16 21:53:00,
2013-03-16 18:03:00,29.0,10.0,29.80,NW,322,1.0,6.0,44,0.00,,,0.00,,2013-03-16 22:03:00,
2013-03-16 18:13:00,29.0,10.0,29.80,NW,322,1.0,6.0,44,0.00,,,0.00,,2013-03-16 22:13:00,
2013-03-16 18:23:00,29.0,11.0,29.72,NNW,329,1.0,6.0,47,0.00,,,0.00,,2013-03-16 22:23:00,
2013-03-16 18:33:00,28.0,11.0,29.73,WNW,283,2.0,5.0,49,0.00,,,0.00,,2013-03-16 22:33:00,
2013-03-16 18:42:00,28.0,11.0,29.73,WNW,283,2.0,5.0,49,0.00,,,0.00,,2013-03-16 22:42:00,
2013-03-16 18:52:00,28.0,11.0,29.73,WNW,289,1.0,5.0,49,0.00,,,0.00,,2013-03-16 22:52:00,
2013-03-16 19:02:00,27.0,10.0,29.73,North,357,2.0,5.0,48,0.00,,,0.00,,2013-03-16 23:02:00,
2013-03-16 19:13:00,27.0,10.0,29.73,North,357,2.0,5.0,48,0.00,,,0.00,,2013-03-16 23:13:00,
2013-03-16 19:23:00,27.0,10.0,29.74,WSW,243,2.0,6.0,48,0.00,,,0.00,,2013-03-16 23:23:00,
2013-03-16 19:33:00,27.0,11.0,29.75,NNW,330,1.0,4.0,50,0.00,,,0.00,,2013-03-16 23:33:00,
2013-03-16 19:42:00,27.0,11.0,29.75,NNW,330,1.0,4.0,50,0.00,,,0.00,,2013-03-16 23:42:00,
2013-03-16 19:53:00,27.0,11.0,29.75,WNW,303,1.0,4.0,51,0.00,,,0.00,,2013-03-16 23:53:00,
2013-03-16 20:02:00,27.0,12.0,29.76,NW,323,2.0,4.0,53,0.00,,,0.00,,2013-03-17 00:02:00,
2013-03-16 20:12:00,27.0,12.0,29.76,NW,323,2.0,4.0,53,0.00,,,0.00,,2013-03-17 00:12:00,
2013-03-16 20:23:00,26.0,12.0,29.76,NNW,348,0.0,3.0,54,0.00,,,0.00,,2013-03-17 00:23:00,
2013-03-16 20:33:00,26.0,12.0,29.77,NNW,331,1.0,3.0,54,0.00,,,0.00,,2013-03-17 00:33:00,
2013-03-16 20:42:00,26.0,12.0,29.77,NNW,331,1.0,3.0,54,0.00,,,0.00,,2013-03-17 00:42:00,
2013-03-16 20:53:00,26.0,11.0,29.77,North,3,2.0,5.0,53,0.00,,,0.00,,2013-03-17 00:53:00,
2013-03-16 21:02:00,25.0,10.0,29.86,NNW,341,0.0,2.0,53,0.00,,,0.00,,2013-03-17 01:02:00,
2013-03-16 21:12:00,25.0,10.0,29.86,NNW,341,0.0,2.0,53,0.00,,,0.00,,2013-03-17 01:12:00,
2013-03-16 21:22:00,25.0,10.0,29.86,NNW,330,0.0,2.0,53,0.00,,,0.00,,2013-03-17 01:22:00,
2013-03-16 21:32:00,25.0,11.0,29.78,North,352,0.0,2.0,54,0.00,,,0.00,,2013-03-17 01:32:00,
2013-03-16 21:42:00,25.0,11.0,29.78,North,352,0.0,2.0,54,0.00,,,0.00,,2013-03-17 01:42:00,
2013-03-16 21:53:00,25.0,11.0,29.78,North,352,0.0,1.0,55,0.00,,,0.00,,2013-03-17 01:53:00,
2013-03-16 22:03:00,25.0,11.0,29.79,North,352,0.0,1.0,55,0.00,,,0.00,,2013-03-17 02:03:00,
2013-03-16 22:13:00,25.0,11.0,29.79,North,352,0.0,1.0,55,0.00,,,0.00,,2013-03-17 02:13:00,
2013-03-16 22:22:00,25.0,12.0,29.79,NNE,15,0.0,1.0,57,0.00,,,0.00,,2013-03-17 02:22:00,
2013-03-16 22:33:00,23.0,11.0,29.79,NNE,16,0.0,0.0,60,0.00,,,0.00,,2013-03-17 02:33:00,
2013-03-16 22:43:00,23.0,11.0,29.79,NNE,16,0.0,0.0,60,0.00,,,0.00,,2013-03-17 02:43:00,
2013-03-16 22:53:00,22.0,11.0,29.80,NNE,15,0.0,0.0,62,0.00,,,0.00,,2013-03-17 02:53:00,
2013-03-16 23:03:00,22.0,12.0,29.80,NNE,17,0.0,1.0,64,0.00,,,0.00,,2013-03-17 03:03:00,
2013-03-16 23:12:00,22.0,12.0,29.80,NNE,17,0.0,1.0,64,0.00,,,0.00,,2013-03-17 03:12:00,
2013-03-16 23:23:00,22.0,11.0,29.81,WSW,239,0.0,1.0,63,0.00,,,0.00,,2013-03-17 03:23:00,
2013-03-16 23:34:00,22.0,12.0,29.81,SW,234,0.0,2.0,65,0.00,,,0.00,,2013-03-17 03:34:00,
2013-03-16 23:43:00,22.0,12.0,29.81,SW,234,0.0,2.0,65,0.00,,,0.00,,2013-03-17 03:43:00,
2013-03-16 23:53:00,22.0,12.0,29.82,WSW,237,0.0,3.0,64,0.00,,,0.00,,2013-03-17 03:53:00,